GW5991 Weather Reports


time (UTC)temp
C
wind
direction
speed
KPH
gust
KPH
rain 1hr
cm
rain 24hr
cm
rain mn
cm
humidity
%
barometer
mb
20260506104051 7 263 0.0 0.0 0.00 0.00 0.00 86 1019.5
20260506103548 7 43 0.0 0.0 0.00 0.00 0.00 86 1019.7
20260506103044 7 28 0.0 0.0 0.00 0.00 0.00 86 1019.4
20260506102543 7 73 0.0 0.0 0.00 0.00 0.00 88 1019.5
20260506102040 7 311 0.0 0.0 0.00 0.00 0.00 89 1019.4
20260506101537 7 312 0.0 0.0 0.00 0.00 0.00 89 1019.3
20260506101034 7 312 0.0 0.0 0.00 0.00 0.00 89 1019.3
20260506100532 7 312 0.0 0.0 0.00 0.00 0.00 89 1019.3
20260506100030 7 313 0.0 0.0 0.00 0.00 0.00 89 1019.3
20260506095528 7 313 0.0 0.0 0.00 0.00 0.00 88 1019.4
20260506095024 7 313 0.0 0.0 0.00 0.00 0.00 88 1019.4
20260506094522 7 313 0.0 0.0 0.00 0.00 0.00 88 1019.1
20260506094020 7 313 0.0 0.0 0.00 0.00 0.00 88 1019.2
20260506093518 7 157 0.0 0.0 0.00 0.00 0.00 88 1019.1
20260506093015 7 321 0.0 0.0 0.00 0.00 0.00 88 1019.0
20260506092513 7 336 0.0 0.0 0.00 0.00 0.00 88 1018.9
20260506092009 7 6 0.0 0.0 0.00 0.00 0.00 88 1019.0
20260506091508 7 26 0.0 0.0 0.00 0.00 0.00 88 1018.9
20260506091004 7 153 0.0 0.0 0.00 0.00 0.00 88 1018.8
20260506090503 7 203 0.0 0.0 0.00 0.00 0.00 88 1018.9
20260506085958 7 203 0.0 0.0 0.00 0.00 0.00 88 1018.8
20260506085455 7 204 0.0 0.0 0.00 0.00 0.00 88 1018.8
20260506084952 7 208 0.0 0.0 0.00 0.00 0.00 89 1018.9
20260506084449 7 208 0.0 0.0 0.00 0.00 0.00 89 1018.8
20260506083945 7 208 0.0 0.0 0.00 0.00 0.00 88 1019.0
20260506083442 7 208 0.0 0.0 0.00 0.00 0.00 88 1018.8
20260506082939 7 208 0.0 0.0 0.00 0.00 0.00 88 1018.8
20260506082436 7 208 0.0 0.0 0.00 0.00 0.00 88 1018.8
20260506081932 7 209 0.0 0.0 0.00 0.00 0.00 88 1018.6
20260506081431 7 209 0.0 0.0 0.00 0.00 0.00 87 1018.8
20260506080927 7 172 0.0 0.0 0.00 0.00 0.00 86 1018.6
20260506080424 7 117 0.0 0.0 0.00 0.00 0.00 86 1018.5
20260506073408 6 215 0.0 0.0 0.00 0.00 0.00 87 1018.7
20260506072905 6 222 0.0 0.0 0.00 0.00 0.00 88 1018.6
20260506072402 6 222 0.0 0.0 0.00 0.00 0.00 88 1018.7
20260506071900 6 222 0.0 0.0 0.00 0.00 0.00 88 1018.8
20260506071358 6 222 0.0 0.0 0.00 0.00 0.00 88 1018.8
20260506070854 6 222 0.0 0.0 0.00 0.00 0.00 87 1018.8
20260506070352 6 223 0.0 0.0 0.00 0.00 0.00 87 1018.7
20260506062329 6 210 0.0 0.0 0.00 0.00 0.00 86 1018.5
20260506061825 6 210 0.0 0.0 0.00 0.00 0.00 85 1018.6
20260506061322 6 210 0.0 0.0 0.00 0.00 0.00 85 1018.6
20260506060820 6 210 0.0 0.0 0.00 0.00 0.00 84 1018.6
20260506060318 7 210 0.0 0.0 0.00 0.00 0.00 83 1018.5
20260506051249 7 258 0.0 0.0 0.00 0.00 0.00 79 1018.5
20260506050747 7 300 0.0 0.0 0.00 0.00 0.00 79 1018.6
20260506050244 8 137 0.0 0.0 0.00 0.00 0.00 80 1018.2
20260506044735 8 323 0.0 0.0 0.00 0.00 0.00 77 1018.2
20260506044232 8 155 0.0 0.0 0.00 0.00 0.00 77 1018.1
20260506043730 8 180 0.0 0.0 0.00 0.00 0.00 77 1018.1
20260506043227 8 91 0.0 0.0 0.00 0.00 0.00 75 1017.9
20260506042726 8 329 0.0 0.0 0.00 0.00 0.00 75 1017.9
20260506042224 8 196 0.0 0.0 0.00 0.00 0.00 75 1017.7
20260506041722 8 49 0.0 0.0 0.00 0.00 0.00 74 1017.7
20260506041219 8 203 0.0 0.0 0.00 0.00 0.00 73 1017.7
20260506040716 9 75 0.0 0.0 0.00 0.00 0.00 72 1017.8
20260506040213 9 124 0.0 0.0 0.00 0.00 0.00 71 1017.6
20260506035709 9 2 0.0 0.0 0.00 0.00 0.00 71 1017.6
20260506035207 9 2 0.0 0.0 0.00 0.00 0.00 70 1017.4
20260506034703 9 319 0.0 0.0 0.00 0.00 0.00 71 1017.3
20260506034201 10 124 0.0 0.0 0.00 0.00 0.00 70 1017.3
20260506033658 10 351 0.0 0.0 0.00 0.00 0.00 69 1017.3
20260506033155 10 195 0.0 0.0 0.00 0.00 0.00 69 1017.4
20260506032652 10 34 0.0 0.0 0.00 0.00 0.00 68 1017.3
20260506032149 10 170 0.0 0.0 0.00 0.00 0.00 68 1017.2
20260506031645 10 349 0.0 0.0 0.00 0.00 0.00 68 1017.3
20260506031142 10 236 0.0 0.0 0.00 0.00 0.00 67 1017.1
20260506030641 10 196 0.0 0.0 0.00 0.00 0.00 67 1017.1
20260506030138 10 301 0.0 0.0 0.00 0.00 0.00 66 1017.0
20260506025635 10 175 0.0 1.6 0.00 0.00 0.00 65 1017.0
20260506025130 10 216 0.0 0.0 0.00 0.00 0.00 65 1017.1
20260506024628 11 329 0.0 0.0 0.00 0.00 0.00 64 1016.8
20260506024124 11 247 0.0 0.0 0.00 0.00 0.00 64 1016.8
20260506023621 11 207 0.0 0.0 0.00 0.00 0.00 64 1016.7
20260506023118 11 112 0.0 0.0 0.00 0.00 0.00 64 1016.8
20260506022615 11 27 0.0 0.0 0.00 0.00 0.00 63 1016.7
20260506022112 11 15 0.0 0.0 0.00 0.00 0.00 61 1016.5
20260506021610 11 202 0.0 1.6 0.00 0.00 0.00 61 1016.5
20260506021107 11 242 0.0 0.0 0.00 0.00 0.00 61 1016.5
20260506020604 11 356 0.0 0.0 0.00 0.00 0.00 60 1016.5
20260506015559 11 153 0.0 1.6 0.00 0.00 0.00 60 1016.3
20260506015056 11 312 0.0 0.0 0.00 0.00 0.00 60 1016.4
20260506014554 12 327 0.0 0.0 0.00 0.00 0.00 58 1016.1
20260506014049 12 268 0.0 1.6 0.00 0.00 0.00 58 1016.1
20260506013548 12 258 0.0 0.0 0.00 0.00 0.00 58 1016.2
20260506013044 12 228 0.0 0.0 0.00 0.00 0.00 58 1016.0
20260506012540 12 182 0.0 1.6 0.00 0.00 0.00 57 1015.8
20260506012037 12 153 0.0 1.6 0.00 0.00 0.00 58 1015.9
20260506011535 12 200 0.0 0.0 0.00 0.00 0.00 57 1015.7
20260506011031 12 259 0.0 0.0 0.00 0.00 0.00 55 1015.8
20260506010530 13 38 0.0 0.0 0.00 0.00 0.00 55 1015.9
20260506010026 13 75 0.0 1.6 0.00 0.00 0.00 55 1015.9
20260506005523 13 356 0.0 0.0 0.00 0.00 0.00 56 1015.9
20260506005019 13 130 0.0 0.0 0.00 0.00 0.00 54 1015.8
20260506004517 13 74 0.0 0.0 0.00 0.00 0.00 51 1015.8
20260506004013 13 335 0.0 0.0 0.00 0.00 0.00 53 1015.9
20260506003510 13 343 0.0 0.0 0.00 0.00 0.00 50 1015.7
20260506003006 13 168 0.0 0.0 0.00 0.00 0.00 48 1015.7
20260506002502 13 237 0.0 0.0 0.00 0.00 0.00 50 1015.8
20260506001957 13 210 0.0 0.0 0.00 0.00 0.00 50 1015.7
20260506001454 13 160 0.0 0.0 0.00 0.00 0.00 48 1015.7
20260506000952 15 111 0.0 1.6 0.00 0.00 0.00 47 1015.7
20260506000449 15 92 0.0 0.0 0.00 0.00 0.00 48 1015.5
20260505235946 15 86 0.0 0.0 0.00 0.00 0.00 46 1015.6
20260505235444 14 303 0.0 0.0 0.00 0.00 0.00 47 1015.6
20260505234941 14 309 1.6 3.2 0.00 0.00 0.00 46 1015.5
20260505234438 14 182 0.0 0.0 0.00 0.00 0.00 48 1015.5
20260505233934 15 130 0.0 0.0 0.00 0.00 0.00 49 1015.5
20260505233432 15 302 0.0 1.6 0.00 0.00 0.00 45 1015.3
20260505232930 16 256 0.0 1.6 0.00 0.00 0.00 44 1015.3
20260505232428 17 252 0.0 0.0 0.00 0.00 0.00 41 1015.3
20260505231924 16 1 0.0 0.0 0.00 0.00 0.00 44 1015.6
20260505231422 16 98 0.0 0.0 0.00 0.00 0.00 45 1015.5
20260505230920 16 45 0.0 0.0 0.00 0.00 0.00 48 1015.4
20260505230417 16 150 0.0 0.0 0.00 0.00 0.00 47 1015.3
20260505225913 15 274 0.0 0.0 0.00 0.00 0.00 50 1015.3
20260505225411 15 248 0.0 0.0 0.00 0.00 0.00 52 1015.3
20260505224906 16 258 0.0 0.0 0.00 0.00 0.00 52 1015.1
20260505224403 15 187 0.0 0.0 0.00 0.00 0.00 52 1015.0
20260505223900 15 317 0.0 0.0 0.00 0.00 0.00 54 1015.0
20260505223357 16 48 0.0 0.0 0.00 0.00 0.00 55 1015.0
20260505222853 16 168 0.0 0.0 0.00 0.00 0.00 51 1014.9
20260505222350 16 149 0.0 0.0 0.00 0.00 0.00 51 1014.8
20260505221846 17 274 0.0 0.0 0.00 0.00 0.00 50 1014.9
20260505221343 16 110 0.0 0.0 0.00 0.00 0.00 55 1014.7
20260505220840 16 183 0.0 0.0 0.00 0.00 0.00 49 1014.7
20260505220337 16 92 0.0 0.0 0.00 0.00 0.00 53 1014.8
20260505215835 16 48 0.0 0.0 0.00 0.00 0.00 50 1014.8
20260505215333 16 264 0.0 0.0 0.00 0.00 0.00 51 1014.8
20260505214831 17 181 0.0 0.0 0.00 0.00 0.00 47 1014.7
20260505214328 17 214 0.0 0.0 0.00 0.00 0.00 49 1014.6
20260505213825 16 277 0.0 0.0 0.00 0.00 0.00 51 1014.8
20260505213323 16 2 0.0 0.0 0.00 0.00 0.00 49 1014.6
20260505212818 16 15 0.0 1.6 0.00 0.00 0.00 48 1014.6
20260505212316 16 286 0.0 0.0 0.00 0.00 0.00 48 1014.5
20260505211812 17 306 0.0 0.0 0.00 0.00 0.00 46 1014.4
20260505211310 17 214 0.0 0.0 0.00 0.00 0.00 47 1014.6
20260505210806 17 292 0.0 1.6 0.00 0.00 0.00 49 1014.4
20260505210303 17 44 0.0 0.0 0.00 0.00 0.00 47 1014.3
20260505205800 17 62 0.0 0.0 0.00 0.00 0.00 49 1014.2
20260505205258 18 154 0.0 0.0 0.00 0.00 0.00 49 1014.2
20260505204754 17 248 0.0 0.0 0.00 0.00 0.00 50 1014.1
20260505204253 17 83 0.0 0.0 0.00 0.00 0.00 51 1014.1
20260505203749 17 186 0.0 0.0 0.00 0.00 0.00 53 1014.0
20260505203246 17 291 0.0 0.0 0.00 0.00 0.00 49 1013.9
20260505202742 17 282 0.0 0.0 0.00 0.00 0.00 48 1013.9
20260505202238 17 160 0.0 0.0 0.00 0.00 0.00 51 1014.0
20260505201735 17 82 0.0 0.0 0.00 0.00 0.00 50 1013.9
20260505201233 17 204 0.0 0.0 0.00 0.00 0.00 50 1013.7
20260505200731 16 186 0.0 1.6 0.00 0.00 0.00 50 1013.8
20260505200228 16 336 0.0 0.0 0.00 0.00 0.00 51 1013.6
20260505195723 16 186 0.0 0.0 0.00 0.00 0.00 52 1013.6
20260505195221 16 227 0.0 0.0 0.00 0.00 0.00 52 1013.6
20260505194718 16 12 0.0 0.0 0.00 0.00 0.00 54 1013.7
20260505194214 16 196 0.0 0.0 0.00 0.00 0.00 54 1013.7
20260505193710 16 37 0.0 0.0 0.00 0.00 0.00 57 1013.6
20260505193208 16 95 0.0 0.0 0.00 0.00 0.00 57 1013.6
20260505192706 16 342 0.0 1.6 0.00 0.00 0.00 54 1013.6
20260505192203 16 333 0.0 0.0 0.00 0.00 0.00 54 1013.5
20260505191701 17 247 0.0 0.0 0.00 0.00 0.00 55 1013.5
20260505191159 17 258 0.0 0.0 0.00 0.00 0.00 53 1013.3
20260505190655 17 191 0.0 0.0 0.00 0.00 0.00 56 1013.5
20260505190155 17 159 0.0 1.6 0.00 0.00 0.00 56 1013.4
20260505185652 16 174 0.0 0.0 0.00 0.00 0.00 55 1013.3
20260505185148 16 173 0.0 0.0 0.00 0.00 0.00 55 1013.1
20260505184645 17 63 0.0 0.0 0.00 0.00 0.00 52 1013.2
20260505184142 17 326 0.0 1.6 0.00 0.00 0.00 52 1013.2
20260505183639 17 269 0.0 0.0 0.00 0.00 0.00 53 1013.1
20260505183137 16 358 0.0 0.0 0.00 0.00 0.00 56 1013.2
20260505182632 16 12 0.0 0.0 0.00 0.00 0.00 58 1013.2
20260505182129 16 254 0.0 0.0 0.00 0.00 0.00 57 1013.2
20260505181626 17 171 0.0 0.0 0.00 0.00 0.00 58 1013.1
20260505181124 16 308 0.0 0.0 0.00 0.00 0.00 60 1013.0
20260505180619 16 244 0.0 0.0 0.00 0.00 0.00 57 1013.0
20260505180117 16 247 0.0 0.0 0.00 0.00 0.00 57 1013.0
20260505175613 16 275 0.0 0.0 0.00 0.00 0.00 57 1013.0
20260505175109 16 193 0.0 0.0 0.00 0.00 0.00 63 1012.9
20260505174606 15 54 0.0 0.0 0.00 0.00 0.00 64 1013.1
20260505174102 15 289 0.0 0.0 0.00 0.00 0.00 62 1013.0
20260505173559 15 68 0.0 0.0 0.00 0.00 0.00 64 1013.0
20260505173056 14 172 0.0 0.0 0.00 0.00 0.00 67 1013.0
20260505172554 15 155 0.0 0.0 0.00 0.00 0.00 64 1013.0
20260505172051 15 123 0.0 0.0 0.00 0.00 0.00 65 1012.8
20260505171550 14 47 0.0 0.0 0.00 0.00 0.00 70 1012.7
20260505171048 13 343 0.0 0.0 0.00 0.00 0.00 66 1012.8
20260505170544 13 57 0.0 0.0 0.00 0.00 0.00 71 1013.1
20260505170041 13 16 0.0 0.0 0.00 0.00 0.00 70 1013.1
20260505165536 12 161 0.0 0.0 0.00 0.00 0.00 72 1013.0
20260505165032 12 326 0.0 0.0 0.00 0.00 0.00 72 1013.0
20260505164528 12 240 0.0 0.0 0.00 0.00 0.00 72 1013.0
20260505164026 12 292 0.0 0.0 0.00 0.00 0.00 74 1012.9
20260505163525 11 328 0.0 0.0 0.00 0.00 0.00 75 1012.7
20260505163021 11 0 0.0 0.0 0.00 0.00 0.00 79 1012.7
20260505162515 10 71 0.0 0.0 0.00 0.00 0.00 82 1012.7
20260505162011 10 72 0.0 0.0 0.00 0.00 0.00 82 1012.7
20260505161508 10 170 0.0 0.0 0.00 0.00 0.00 81 1012.7
20260505161006 10 160 0.0 0.0 0.00 0.00 0.00 83 1012.6
20260505160503 10 128 0.0 0.0 0.00 0.00 0.00 81 1012.6
20260505152940 8 203 0.0 0.0 0.00 0.00 0.00 92 1012.1
20260505152437 7 224 0.0 0.0 0.00 0.00 0.00 92 1012.0
20260505151932 7 184 0.0 0.0 0.00 0.00 0.00 91 1012.0
20260505151428 7 340 0.0 0.0 0.00 0.00 0.00 92 1012.1
20260505150925 7 340 0.0 0.0 0.00 0.00 0.00 92 1011.8
20260505150422 7 340 0.0 0.0 0.00 0.00 0.00 92 1011.8
20260505140352 5 25 0.0 0.0 0.00 0.00 0.00 96 1011.8
20260505124805 5 160 0.0 0.0 0.00 0.00 0.00 96 1011.5
20260505124302 5 177 0.0 0.0 0.00 0.00 0.00 96 1011.6
20260505123757 5 203 0.0 0.0 0.00 0.00 0.00 96 1011.6
20260505123254 5 203 0.0 0.0 0.00 0.00 0.00 96 1011.5
20260505122751 5 207 0.0 0.0 0.00 0.00 0.00 96 1011.3
20260505122248 5 307 0.0 0.0 0.00 0.00 0.00 96 1011.3
20260505121745 5 42 0.0 0.0 0.00 0.00 0.00 96 1011.3
20260505121241 5 57 0.0 0.0 0.00 0.00 0.00 96 1011.4
20260505120738 5 196 0.0 0.0 0.00 0.00 0.00 96 1011.3
20260505120234 5 196 0.0 0.0 0.00 0.00 0.00 96 1011.3
20260505115732 5 196 0.0 0.0 0.00 0.00 0.00 96 1011.2
20260505115231 5 196 0.0 0.0 0.00 0.00 0.00 96 1011.2
20260505114727 5 197 0.0 0.0 0.00 0.00 0.00 95 1011.2
20260505114223 5 197 0.0 0.0 0.00 0.00 0.00 95 1011.2
20260505113720 5 197 0.0 0.0 0.00 0.00 0.00 95 1011.1
20260505113217 5 197 0.0 0.0 0.00 0.00 0.00 95 1011.1
20260505112714 5 197 0.0 0.0 0.00 0.00 0.00 95 1011.2
20260505112212 5 197 0.0 0.0 0.00 0.00 0.00 95 1011.2
20260505111711 5 168 0.0 0.0 0.00 0.00 0.00 95 1011.4
20260505111208 5 170 0.0 0.0 0.00 0.00 0.00 95 1011.6
20260505110704 5 169 0.0 0.0 0.00 0.00 0.00 95 1011.4
20260505110202 5 169 0.0 0.0 0.00 0.00 0.00 95 1011.5